User: anonymous   Login
Location: Columbia
(38.9520°N, 92.3340°W)
Time: 14:22:40
(UTC-06:00)
Language:

FENGYUN 3A - Orbit

View from above orbital plane
View from above orbital plane
View from above satellite
View from above satellite

Ground track
Ground track

The orbit data is extracted from the following two-line orbital elements,

1 32958U 08026A   15029.32451091  .00000086  00000-0  60618-4 0  7587
2 32958 098.5240 085.1742 0009010 283.5618 076.4561 14.19520546345926
Epoch (UTC): 29 January 2015 07:47:17
Eccentricity: 0.0009010
inclination: 98.5240°
perigee height: 820 km
apogee height: 833 km
right ascension of ascending node: 85.1742°
argument of perigee: 283.5618°
revolutions per day: 14.19520546
mean anomaly at epoch: 76.4561°
orbit number at epoch: 34592

The dashed part of the orbit path shows where the satellite is in the earth's shadow,  

DLR